Location: Anuling
(14.1239°N, 120.8922°E)
Time: 18:17:44
(UTC+00:00)

GPS 2-17 Rocket1 - Visible Passes

Search period start: 11 April 2026 00:00
Search period end: 21 April 2026 00:00
Orbit: 544 x 614 km, 20.3° (Epoch: 11 April)

Date Brightness Start Highest point End Pass type
(mag) Time Alt. Az. Time Alt. Az. Time Alt. Az.
11 Apr 4.1 10:41:07 10° WNW 10:45:25 39° N 10:49:41 10° ENE visible
11 Apr 5.2 12:24:03 10° WNW 12:26:07 24° NW 12:26:07 24° NW visible
12 Apr 4.1 10:43:51 10° WNW 10:48:07 37° N 10:52:21 10° ENE visible
12 Apr 5.2 12:26:39 10° WNW 12:28:34 23° NW 12:28:34 23° NW visible
13 Apr 4.1 10:46:33 10° WNW 10:50:50 37° N 10:54:49 11° ENE visible
13 Apr 5.3 12:29:12 10° WNW 12:30:59 22° WNW 12:30:59 22° WNW visible
14 Apr 3.9 10:49:11 10° WNW 10:53:31 40° N 10:57:14 13° ENE visible
14 Apr 5.4 12:31:45 10° WNW 12:33:24 22° WNW 12:33:24 22° WNW visible
15 Apr 3.7 10:51:47 10° WNW 10:56:12 46° N 10:59:39 16° ENE visible
15 Apr 5.5 12:34:19 10° WNW 12:35:48 20° WNW 12:35:48 20° WNW visible
16 Apr 3.4 10:54:20 10° WNW 10:58:50 56° N 11:02:03 18° E visible
16 Apr 5.6 12:36:57 10° W 12:38:13 18° W 12:38:13 18° W visible
17 Apr 3.1 10:56:53 10° WNW 11:01:27 71° NNE 11:04:28 21° E visible
17 Apr 5.7 12:39:41 10° W 12:40:38 15° W 12:40:38 15° W visible
18 Apr 3.0 10:59:27 10° WNW 11:04:02 86° SSW 11:06:54 23° ESE visible
18 Apr 5.9 12:42:34 10° W 12:43:04 12° WSW 12:43:04 12° WSW visible
19 Apr 3.2 11:02:05 10° W 11:06:36 62° SSW 11:09:21 23° ESE visible
20 Apr 3.8 11:04:48 10° W 11:09:08 43° SSW 11:11:48 21° SE visible
